Retour au catalogue

OPS 8068

ActifMilitaireSSO
NORAD 1580·PAYLOAD·🇺🇸 United States

Lancé Sep 10, 1965 depuis Vandenberg Space Force Base

Loading…

Prochains Passages (prochaines 24 heures)

TLE

FraisSource: Space-Track

Époque: Sep 14, 2026, 09:43 UTC

1 01580U 65072A   26257.40486933  .00000288  00000-0  98280-4 0  9992
2 01580  98.4326  51.0644 0229509 141.8702 219.8973 14.29706268145765

Suivez OPS 8068 en temps réel avec AllMySat

Download on the App Store